EW6460 Weather Reports


Display with metric or nautical units.
time (UTC)temp
F
wind
direction
speed
MPH
gust
MPH
rain 1hr
in
rain 24hr
in
rain mn
in
humidity
%
barometer
mb
20260510010049 82 150 0.0 3.0 0.00 0.02 0.02 54 1006.7
20260510004511 85 149 0.0 3.0 0.00 0.02 0.02 48 1006.6
20260510001510 88 149 0.0 2.0 0.00 0.02 0.02 45 1006.3
20260510000100 90 149 0.0 1.0 0.00 0.02 0.02 45 1006.3
20260509234536 90 149 0.0 3.0 0.00 0.02 0.02 48 1006.1
20260509233001 91 150 0.0 0.0 0.00 0.02 0.02 47 1005.9
20260509231604 92 149 0.0 3.0 0.00 0.02 0.02 49 1005.9
20260509230040 92 148 0.0 0.0 0.00 0.02 0.02 47 1005.9
20260509224508 93 148 0.0 0.0 0.00 0.02 0.02 48 1006.0
20260509223040 91 148 0.0 0.0 0.00 0.02 0.02 50 1005.9
20260509221505 91 149 0.0 2.0 0.00 0.02 0.02 50 1005.9
20260509220058 89 150 0.0 4.0 0.00 0.02 0.02 52 1006.0
20260509214539 88 151 0.0 5.0 0.00 0.02 0.02 53 1006.1
20260509213108 85 150 0.0 6.0 0.00 0.02 0.02 54 1006.4
20260509211518 88 148 2.0 7.0 0.00 0.02 0.02 54 1006.3
20260509210009 88 149 0.0 0.0 0.00 0.02 0.02 52 1006.5
20260509204539 88 149 0.0 0.0 0.00 0.02 0.02 50 1006.7
20260509203012 90 149 0.0 3.0 0.00 0.02 0.02 50 1006.8
20260509201538 91 150 0.0 3.0 0.00 0.02 0.02 52 1007.0
20260509200103 90 150 0.0 4.0 0.00 0.02 0.02 50 1007.1
20260509194530 89 151 0.0 5.0 0.00 0.02 0.02 53 1007.1
20260509193019 88 150 0.0 5.0 0.00 0.02 0.02 54 1007.3
20260509191540 87 150 2.0 6.0 0.00 0.02 0.02 55 1007.6
20260509190018 88 150 1.0 5.0 0.00 0.02 0.02 55 1007.9
20260509184552 87 151 0.0 4.0 0.00 0.02 0.02 58 1008.2
20260509183015 85 150 0.0 3.0 0.00 0.02 0.02 62 1008.4
20260509181502 87 150 2.0 5.0 0.00 0.02 0.02 61 1008.6
20260509180048 87 150 0.0 4.0 0.00 0.02 0.02 61 1008.6
20260509174530 86 150 0.0 1.0 0.00 0.02 0.02 66 1009.0
20260509173105 85 150 0.0 6.0 0.00 0.02 0.02 65 1009.2
20260509171524 84 150 1.0 7.0 0.00 0.02 0.02 68 1009.0
20260509170048 83 150 0.0 4.0 0.00 0.02 0.02 70 1009.2
20260509164518 83 151 0.0 4.0 0.00 0.02 0.02 70 1009.2
20260509163052 81 150 0.0 5.0 0.00 0.02 0.02 75 1009.3
20260509161512 80 151 0.0 4.0 0.00 0.02 0.02 80 1009.3
20260509160041 78 148 2.0 6.0 0.00 0.02 0.02 83 1009.2
20260509154504 76 150 1.0 6.0 0.00 0.02 0.02 89 1009.7
20260509153038 74 150 3.0 8.0 0.00 0.02 0.02 92 1009.7
20260509151549 73 150 1.0 7.0 0.00 0.02 0.02 93 1009.8
20260509150020 73 149 0.0 4.0 0.00 0.02 0.02 93 1009.4
20260509144549 73 149 1.0 4.0 0.00 0.02 0.02 94 1009.2
20260509143019 73 150 0.0 5.0 0.00 0.02 0.02 95 1009.0
20260509141504 72 150 1.0 4.0 0.00 0.02 0.02 96 1008.7
20260509140050 72 149 0.0 1.0 0.00 0.02 0.02 97 1008.6
20260509134507 71 151 0.0 2.0 0.00 0.02 0.02 97 1008.6
20260509133058 71 150 0.0 0.0 0.00 0.02 0.02 97 1009.4
20260509131528 71 151 0.0 0.0 0.00 0.02 0.02 97 1009.4
20260509130058 70 151 0.0 0.0 0.00 0.02 0.02 97 1009.2
20260509124532 70 151 0.0 0.0 0.00 0.02 0.02 97 1009.0
20260509123054 70 151 0.0 0.0 0.00 0.02 0.02 97 1008.7
20260509121526 70 151 0.0 0.0 0.00 0.02 0.02 97 1008.9
20260509120053 70 151 0.0 0.0 0.00 0.02 0.02 97 1008.9
20260509114550 70 151 0.0 0.0 0.00 0.02 0.02 97 1009.2
20260509113032 70 151 0.0 0.0 0.00 0.02 0.02 97 1009.7
20260509111508 70 151 0.0 0.0 0.00 0.02 0.02 97 1009.7
20260509110058 70 151 0.0 0.0 0.00 0.02 0.02 96 1009.9
20260509104534 70 151 0.0 0.0 0.00 0.02 0.02 96 1010.0
20260509103105 70 151 0.0 0.0 0.00 0.02 0.02 96 1009.9
20260509101517 70 151 0.0 0.0 0.00 0.02 0.02 96 1009.4
20260509100042 70 151 0.0 0.0 0.01 0.02 0.02 96 1008.9
20260509094516 70 151 0.0 0.0 0.01 0.02 0.02 96 1008.6
20260509093042 70 151 0.0 0.0 0.01 0.02 0.02 96 1008.6
20260509091547 70 151 0.0 0.0 0.02 0.02 0.02 96 1008.5
20260509090010 70 151 0.0 0.0 0.01 0.01 0.01 96 1008.5
20260509084547 70 151 0.0 0.0 0.01 0.01 0.01 96 1008.6
20260509083011 70 151 0.0 0.0 0.00 0.00 0.00 96 1009.0
20260509081538 70 151 0.0 0.0 0.00 0.00 0.00 95 1008.9
20260509080005 70 151 0.0 0.0 0.00 0.00 0.00 95 1008.9
20260509074555 71 151 0.0 0.0 0.00 0.00 0.00 95 1008.7
20260509073031 71 151 0.0 0.0 0.00 0.00 0.00 95 1009.0
20260509071557 71 151 0.0 0.0 0.00 0.00 0.00 95 1008.8
20260509070020 71 151 0.0 1.0 0.00 0.00 0.00 95 1008.9
20260509064516 71 151 0.0 2.0 0.00 0.00 0.00 95 1009.0
20260509063020 71 151 0.0 3.0 0.00 0.00 0.00 95 1008.5
20260509061552 70 151 0.0 6.0 0.00 0.00 0.00 95 1008.6
20260509060025 70 151 0.0 5.0 0.00 0.00 0.00 95 1008.4
20260509054538 70 150 0.0 5.0 0.00 0.00 0.00 95 1008.6
20260509053016 70 151 0.0 4.0 0.00 0.00 0.00 95 1008.7
20260509051514 69 150 0.0 3.0 0.00 0.00 0.00 95 1008.5
20260509050055 69 150 0.0 3.0 0.00 0.00 0.00 95 1008.4
20260509044529 69 150 0.0 2.0 0.00 0.00 0.00 95 1008.0
20260509043054 69 150 0.0 1.0 0.00 0.00 0.00 94 1008.2
20260509041549 70 150 0.0 2.0 0.00 0.00 0.00 94 1008.3
20260509040021 70 150 0.0 2.0 0.00 0.00 0.00 93 1008.6
20260509034549 70 149 0.0 1.0 0.00 0.00 0.00 93 1008.7
20260509033107 70 149 0.0 1.0 0.00 0.00 0.00 92 1008.8
20260509031515 71 149 0.0 1.0 0.00 0.00 0.00 92 1008.6
20260509030049 71 150 0.0 1.0 0.00 0.00 0.00 91 1008.4
20260509024525 71 150 0.0 2.0 0.00 0.00 0.00 90 1008.0
20260509023057 72 150 0.0 3.0 0.00 0.00 0.00 90 1008.1
20260509021553 72 149 0.0 2.0 0.00 0.00 0.00 89 1008.0
20260509020033 72 150 0.0 3.0 0.00 0.00 0.00 89 1007.7
20260509014512 73 150 0.0 3.0 0.00 0.00 0.00 87 1007.3
20260509013056 74 149 0.0 2.0 0.00 0.00 0.00 86 1007.1
20260509011521 74 150 0.0 3.0 0.00 0.00 0.00 84 1007.2